Location: Ferma
(41.9500°N, 44.5167°E)
Time: 04:54:10
(UTC+00:00)

NOSS 2-3 (D) - Pass Details

Date: 30 May 2022
Orbit: 536 x 1674 km, 63.3° (Epoch: 02 June)

Event Time Altitude Azimuth Distance (km) Brightness Sun altitude
Rises 21:23:26 0° 309° (NW) 3,753 8.0 -25.9°
Reaches altitude 10° 21:26:31 10° 293° (WNW) 2,989 7.2 -25.9°
Enters shadow 21:31:36 21° 249° (WSW) 2,530 6.4 -25.8°
